GLD1144 SBBV-TGPY

Flight info

Callsign GLD1144
Flight time 1h 15m
Altitude 41000
Route DCT ILNER UM402 POS DCT IMORO DCT
Aircraft C750/M-SDFGIRY/S

Departure

Time 2026-04-25 18:22
Airport Atlas Brasil Cantanhede International Airport (SBBV)

Arrival

Time 2026-04-25 19:38
Airport Maurice Bishop International Airport (TGPY)
Time Latitude Longitude Altitude Speed Heading
2026-04-25 17:53 2.84341 -60.68965 276 ft 0 kts 332°
2026-04-25 18:15 2.84360 -60.68968 276 ft 5 kts 14°
2026-04-25 18:15 2.84375 -60.68949 276 ft 1 kts 62°
2026-04-25 18:15 2.84385 -60.68929 276 ft 10 kts 62°
2026-04-25 18:16 2.84417 -60.68870 276 ft 9 kts 54°
2026-04-25 18:16 2.84460 -60.68869 276 ft 5 kts 333°
2026-04-25 18:16 2.84503 -60.68933 276 ft 9 kts 243°
2026-04-25 18:17 2.84470 -60.68997 276 ft 12 kts 244°
2026-04-25 18:17 2.84431 -60.69073 276 ft 12 kts 246°
2026-04-25 18:17 2.84388 -60.69155 276 ft 13 kts 242°
2026-04-25 18:17 2.84345 -60.69240 276 ft 14 kts 243°
2026-04-25 18:18 2.84307 -60.69314 276 ft 12 kts 243°
2026-04-25 18:18 2.84265 -60.69397 276 ft 15 kts 243°
2026-04-25 18:18 2.84215 -60.69494 276 ft 16 kts 242°
2026-04-25 18:18 2.84161 -60.69599 276 ft 18 kts 243°
2026-04-25 18:19 2.84103 -60.69714 276 ft 19 kts 242°
2026-04-25 18:19 2.84039 -60.69837 276 ft 21 kts 243°
2026-04-25 18:19 2.83976 -60.69960 277 ft 19 kts 242°
2026-04-25 18:19 2.83977 -60.70030 277 ft 9 kts 334°
2026-04-25 18:20 2.83998 -60.70040 277 ft 0 kts 334°
2026-04-25 18:21 2.83999 -60.70041 277 ft 2 kts 334°
2026-04-25 18:21 2.84057 -60.70073 277 ft 13 kts 324°
2026-04-25 18:21 2.84107 -60.70033 277 ft 20 kts 63°
2026-04-25 18:22 2.84350 -60.69563 275 ft 129 kts 63°
2026-04-25 18:22 2.84494 -60.69280 377 ft 138 kts 63°
2026-04-25 18:22 2.85359 -60.67668 914 ft 186 kts 61°
2026-04-25 18:22 2.86053 -60.66410 1032 ft 230 kts 62°
2026-04-25 18:23 2.86822 -60.64866 1477 ft 260 kts 65°
2026-04-25 18:23 2.87578 -60.63244 2655 ft 256 kts 63°
2026-04-25 18:23 2.88834 -60.61962 3589 ft 265 kts 31°
2026-04-25 18:23 2.90594 -60.61429 4680 ft 269 kts
2026-04-25 18:24 2.92466 -60.61639 5629 ft 273 kts 351°
2026-04-25 18:24 2.94352 -60.61995 6556 ft 278 kts 350°
2026-04-25 18:24 2.96272 -60.62337 7533 ft 282 kts 351°
2026-04-25 18:24 2.98221 -60.62663 8596 ft 286 kts 351°
2026-04-25 18:25 3.00162 -60.62992 9593 ft 291 kts 350°
2026-04-25 18:25 3.02227 -60.63349 10329 ft 304 kts 350°
2026-04-25 18:25 3.04401 -60.63725 10566 ft 331 kts 350°
2026-04-25 18:25 3.06764 -60.64129 10708 ft 357 kts 350°
2026-04-25 18:26 3.09231 -60.64551 11444 ft 360 kts 350°
2026-04-25 18:26 3.11679 -60.64973 12194 ft 364 kts 350°
2026-04-25 18:26 3.14198 -60.65406 12917 ft 368 kts 350°
2026-04-25 18:26 3.16737 -60.65841 13641 ft 372 kts 351°
2026-04-25 18:27 3.19301 -60.66281 14274 ft 376 kts 351°
2026-04-25 18:27 3.21898 -60.66728 14914 ft 380 kts 350°
2026-04-25 18:27 3.24518 -60.67178 15553 ft 384 kts 350°
2026-04-25 18:27 3.27156 -60.67631 16211 ft 387 kts 351°
2026-04-25 18:28 3.29829 -60.68089 16873 ft 391 kts 350°
2026-04-25 18:28 3.32527 -60.68553 17556 ft 395 kts 351°
2026-04-25 18:28 3.35256 -60.69022 18223 ft 400 kts 351°
2026-04-25 18:29 3.40801 -60.69975 19470 ft 408 kts 351°
2026-04-25 18:29 3.43618 -60.70459 20104 ft 413 kts 351°
2026-04-25 18:30 3.52256 -60.71943 21999 ft 426 kts 351°
2026-04-25 18:30 3.55194 -60.72448 22642 ft 431 kts 351°
2026-04-25 18:30 3.58169 -60.72959 23254 ft 436 kts 351°
2026-04-25 18:30 3.61173 -60.73475 23809 ft 440 kts 351°
2026-04-25 18:31 3.64201 -60.73996 24379 ft 443 kts 351°
2026-04-25 18:31 3.67255 -60.74521 24910 ft 447 kts 351°
2026-04-25 18:31 3.70329 -60.75049 25453 ft 450 kts 351°
2026-04-25 18:31 3.73425 -60.75581 26034 ft 453 kts 351°
2026-04-25 18:32 3.76550 -60.76119 26581 ft 457 kts 351°
2026-04-25 18:32 3.79699 -60.76661 27142 ft 460 kts 351°
2026-04-25 18:32 3.82868 -60.77205 27688 ft 464 kts 351°
2026-04-25 18:32 3.86059 -60.77754 28222 ft 467 kts 351°
2026-04-25 18:33 3.89295 -60.78150 28685 ft 471 kts 356°
2026-04-25 18:33 3.91464 -60.78334 29041 ft 472 kts 356°
2026-04-25 18:33 3.95865 -60.78718 29716 ft 477 kts 355°
2026-04-25 18:33 3.98059 -60.78925 30020 ft 480 kts 355°
2026-04-25 18:34 4.02484 -60.79340 30523 ft 485 kts 356°
2026-04-25 18:34 4.05853 -60.79639 30933 ft 487 kts 356°
2026-04-25 18:34 4.09228 -60.79939 31539 ft 485 kts 356°
2026-04-25 18:34 4.12581 -60.80248 32102 ft 484 kts 355°
2026-04-25 18:35 4.14841 -60.80457 32414 ft 483 kts 355°
2026-04-25 18:35 4.18197 -60.80761 32925 ft 483 kts 356°
2026-04-25 18:35 4.21544 -60.81062 33501 ft 482 kts 356°
2026-04-25 18:35 4.24883 -60.81367 34040 ft 482 kts 355°
2026-04-25 18:36 4.28174 -60.81668 34549 ft 481 kts 356°
2026-04-25 18:36 4.31506 -60.81971 35080 ft 479 kts 356°
2026-04-25 18:36 4.34827 -60.82271 35576 ft 479 kts 356°
2026-04-25 18:36 4.38146 -60.82573 36079 ft 479 kts 356°
2026-04-25 18:37 4.41459 -60.82875 36652 ft 477 kts 356°
2026-04-25 18:37 4.44752 -60.83174 37249 ft 475 kts 356°
2026-04-25 18:37 4.48038 -60.83473 37834 ft 473 kts 356°
2026-04-25 18:37 4.51318 -60.83771 38425 ft 472 kts 356°
2026-04-25 18:38 4.54580 -60.84068 38969 ft 470 kts 356°
2026-04-25 18:38 4.57836 -60.84364 39479 ft 469 kts 356°
2026-04-25 18:38 4.61078 -60.84659 40018 ft 466 kts 356°
2026-04-25 18:38 4.64301 -60.84952 40557 ft 465 kts 356°
2026-04-25 18:39 4.67518 -60.85245 40941 ft 467 kts 355°
2026-04-25 18:39 4.70788 -60.85542 40929 ft 478 kts 356°
2026-04-25 18:39 4.77545 -60.86179 40948 ft 497 kts 355°
2026-04-25 18:40 4.84548 -60.86840 40954 ft 513 kts 355°
2026-04-25 18:40 4.91737 -60.87515 40956 ft 523 kts 355°
2026-04-25 18:41 4.98985 -60.88200 40953 ft 524 kts 355°
2026-04-25 18:41 5.06227 -60.88881 40951 ft 521 kts 355°
2026-04-25 18:42 5.12228 -60.89447 40947 ft 523 kts 355°
2026-04-25 18:42 5.20731 -60.90247 40951 ft 525 kts 355°
2026-04-25 18:43 5.28015 -60.90934 40950 ft 525 kts 355°
2026-04-25 18:43 5.35305 -60.91621 40940 ft 527 kts 355°
2026-04-25 18:44 5.42585 -60.92307 40937 ft 528 kts 355°
2026-04-25 18:44 5.49916 -60.92958 40927 ft 528 kts 355°
2026-04-25 18:45 5.57245 -60.93623 40934 ft 528 kts 355°
2026-04-25 18:45 5.64592 -60.94284 40928 ft 529 kts 355°
2026-04-25 18:46 5.71926 -60.94946 40934 ft 529 kts 355°
2026-04-25 18:46 5.79263 -60.95609 40931 ft 530 kts 355°
2026-04-25 18:47 5.86601 -60.96270 40927 ft 530 kts 355°
2026-04-25 18:47 5.93940 -60.96934 40928 ft 530 kts 355°
2026-04-25 18:48 6.01232 -60.97592 40923 ft 530 kts 355°
2026-04-25 18:48 6.08574 -60.98256 40924 ft 531 kts 355°
2026-04-25 18:49 6.15924 -60.98919 40915 ft 530 kts 355°
2026-04-25 18:49 6.23273 -60.99584 40916 ft 530 kts 355°
2026-04-25 18:50 6.30628 -61.00249 40904 ft 530 kts 355°
2026-04-25 18:50 6.37986 -61.00914 40905 ft 530 kts 355°
2026-04-25 18:51 6.44102 -61.01467 40894 ft 530 kts 355°
2026-04-25 18:51 6.52691 -61.02244 40893 ft 530 kts 355°
2026-04-25 18:52 6.60040 -61.02910 40893 ft 530 kts 355°
2026-04-25 18:52 6.67394 -61.03575 40886 ft 531 kts 355°
2026-04-25 18:53 6.74760 -61.04249 40884 ft 531 kts 354°
2026-04-25 18:53 6.82106 -61.04958 40876 ft 531 kts 355°
2026-04-25 18:54 6.93160 -61.05996 40871 ft 532 kts 355°
2026-04-25 18:55 7.00542 -61.06697 40877 ft 532 kts 355°
2026-04-25 18:55 7.07870 -61.07388 40871 ft 532 kts 355°
2026-04-25 18:56 7.15250 -61.08089 40869 ft 532 kts 355°
2026-04-25 18:56 7.22634 -61.08787 40871 ft 531 kts 355°
2026-04-25 18:57 7.29997 -61.09485 40872 ft 531 kts 355°
2026-04-25 18:57 7.37365 -61.10182 40868 ft 530 kts 355°
2026-04-25 18:58 7.44717 -61.10879 40864 ft 530 kts 355°
2026-04-25 18:58 7.55702 -61.11921 40856 ft 527 kts 355°
2026-04-25 18:59 7.70276 -61.13304 40867 ft 524 kts 355°
2026-04-25 19:00 7.81217 -61.14343 40878 ft 528 kts 355°
2026-04-25 19:01 7.92203 -61.15387 40874 ft 528 kts 355°
2026-04-25 19:01 7.99527 -61.16082 40874 ft 528 kts 354°
2026-04-25 19:02 8.10461 -61.17122 40868 ft 525 kts 354°
2026-04-25 19:03 8.18972 -61.17931 40868 ft 526 kts 354°
2026-04-25 19:03 8.28685 -61.18856 40871 ft 527 kts 354°
2026-04-25 19:04 8.39600 -61.19895 40875 ft 524 kts 354°
2026-04-25 19:05 8.54143 -61.21250 40877 ft 525 kts 355°
2026-04-25 19:06 8.61424 -61.21916 40873 ft 525 kts 354°
2026-04-25 19:06 8.72355 -61.22915 40873 ft 527 kts 354°
2026-04-25 19:07 8.83304 -61.23921 40880 ft 527 kts 354°
2026-04-25 19:08 8.94261 -61.24924 40885 ft 526 kts 354°
2026-04-25 19:09 9.06440 -61.26040 40887 ft 528 kts 354°
2026-04-25 19:10 9.19904 -61.27276 40892 ft 529 kts 354°
2026-04-25 19:10 9.27227 -61.27948 40894 ft 529 kts 354°
2026-04-25 19:11 9.34558 -61.28622 40897 ft 530 kts 354°
2026-04-25 19:11 9.41882 -61.29295 40896 ft 529 kts 354°
2026-04-25 19:12 9.49167 -61.29965 40899 ft 529 kts 354°
2026-04-25 19:12 9.56497 -61.30639 40904 ft 530 kts 354°
2026-04-25 19:13 9.63869 -61.31317 40902 ft 529 kts 354°
2026-04-25 19:13 9.71149 -61.31987 40912 ft 529 kts 354°
2026-04-25 19:14 9.78486 -61.32663 40907 ft 529 kts 354°
2026-04-25 19:14 9.85816 -61.33338 40907 ft 529 kts 354°
2026-04-25 19:15 9.93149 -61.34024 40901 ft 529 kts 353°
2026-04-25 19:15 10.00488 -61.34755 40911 ft 531 kts 353°
2026-04-25 19:16 10.07871 -61.35461 40426 ft 540 kts 354°
2026-04-25 19:16 10.11605 -61.35826 39733 ft 527 kts 354°
2026-04-25 19:16 10.14018 -61.36064 39257 ft 527 kts 353°
2026-04-25 19:16 10.18937 -61.36544 38284 ft 532 kts 354°
2026-04-25 19:17 10.22616 -61.36898 37584 ft 530 kts 353°
2026-04-25 19:17 10.25048 -61.37134 37122 ft 531 kts 353°
2026-04-25 19:17 10.28709 -61.37492 36426 ft 524 kts 353°
2026-04-25 19:17 10.32353 -61.37848 35734 ft 516 kts 353°
2026-04-25 19:18 10.35949 -61.38199 35050 ft 528 kts 353°
2026-04-25 19:18 10.39639 -61.38559 34356 ft 535 kts 353°
2026-04-25 19:18 10.43345 -61.38918 33622 ft 533 kts 353°
2026-04-25 19:18 10.46954 -61.39336 32911 ft 527 kts 349°
2026-04-25 19:19 10.50514 -61.40175 32237 ft 523 kts 345°
2026-04-25 19:19 10.54022 -61.41116 31551 ft 519 kts 344°
2026-04-25 19:19 10.57529 -61.42045 30862 ft 526 kts 345°
2026-04-25 19:19 10.59904 -61.42637 30395 ft 533 kts 346°
2026-04-25 19:20 10.64725 -61.43821 29411 ft 530 kts 346°
2026-04-25 19:20 10.68278 -61.44738 28722 ft 525 kts 345°
2026-04-25 19:20 10.71792 -61.45656 28030 ft 519 kts 345°
2026-04-25 19:20 10.75275 -61.46540 27348 ft 513 kts 346°
2026-04-25 19:21 10.78726 -61.47402 26673 ft 507 kts 346°
2026-04-25 19:21 10.85596 -61.49167 25328 ft 510 kts 345°
2026-04-25 19:21 10.89021 -61.50041 24658 ft 505 kts 346°
2026-04-25 19:22 10.92407 -61.50897 23995 ft 498 kts 346°
2026-04-25 19:22 10.95765 -61.51753 23315 ft 495 kts 346°
2026-04-25 19:22 11.02373 -61.53447 21999 ft 486 kts 346°
2026-04-25 19:23 11.05643 -61.54279 21361 ft 482 kts 346°
2026-04-25 19:23 11.12046 -61.55914 20110 ft 474 kts 346°
2026-04-25 19:23 11.15229 -61.56729 19487 ft 469 kts 346°
2026-04-25 19:24 11.18386 -61.57535 18872 ft 466 kts 346°
2026-04-25 19:24 11.21515 -61.58334 18261 ft 462 kts 346°
2026-04-25 19:24 11.27695 -61.59916 17008 ft 453 kts 346°
2026-04-25 19:25 11.33779 -61.61472 15823 ft 447 kts 346°
2026-04-25 19:25 11.36777 -61.62240 15237 ft 441 kts 346°
2026-04-25 19:25 11.39742 -61.62999 14657 ft 438 kts 346°
2026-04-25 19:26 11.42688 -61.63753 14079 ft 435 kts 346°
2026-04-25 19:26 11.45619 -61.64504 13480 ft 432 kts 346°
2026-04-25 19:26 11.48519 -61.65246 12902 ft 428 kts 346°
2026-04-25 19:26 11.51306 -61.66144 12308 ft 411 kts 335°
2026-04-25 19:27 11.53686 -61.67738 11804 ft 401 kts 322°
2026-04-25 19:27 11.55100 -61.68863 11470 ft 380 kts 321°
2026-04-25 19:27 11.57734 -61.71000 10830 ft 346 kts 321°
2026-04-25 19:27 11.59558 -61.72452 10399 ft 306 kts 321°
2026-04-25 19:28 11.61160 -61.73716 10003 ft 289 kts 321°
2026-04-25 19:28 11.62791 -61.75018 9600 ft 301 kts 320°
2026-04-25 19:28 11.64423 -61.76323 9204 ft 295 kts 320°
2026-04-25 19:28 11.66027 -61.77601 8863 ft 290 kts 321°
2026-04-25 19:29 11.67609 -61.78861 8528 ft 288 kts 321°
2026-04-25 19:29 11.69184 -61.80118 8153 ft 287 kts 321°
2026-04-25 19:29 11.70755 -61.81371 7781 ft 286 kts 321°
2026-04-25 19:29 11.72318 -61.82618 7402 ft 284 kts 321°
2026-04-25 19:30 11.73869 -61.83855 7040 ft 282 kts 321°
2026-04-25 19:30 11.75409 -61.85084 6661 ft 280 kts 321°
2026-04-25 19:30 11.76940 -61.86305 6288 ft 279 kts 321°
2026-04-25 19:30 11.78457 -61.87517 5907 ft 276 kts 321°
2026-04-25 19:31 11.79965 -61.88721 5543 ft 275 kts 322°
2026-04-25 19:31 11.81471 -61.89923 5182 ft 274 kts 321°
2026-04-25 19:31 11.82964 -61.91115 4819 ft 270 kts 322°
2026-04-25 19:31 11.84413 -61.92272 4464 ft 260 kts 322°
2026-04-25 19:32 11.85816 -61.93392 4113 ft 253 kts 322°
2026-04-25 19:32 11.87190 -61.94490 3778 ft 248 kts 322°
2026-04-25 19:32 11.88532 -61.95563 3458 ft 243 kts 322°
2026-04-25 19:32 11.89419 -61.96270 3254 ft 245 kts 322°
2026-04-25 19:33 11.91481 -61.97104 2780 ft 237 kts
2026-04-25 19:33 11.93088 -61.97078 2921 ft 233 kts
2026-04-25 19:33 11.94727 -61.97069 3019 ft 239 kts
2026-04-25 19:33 11.96397 -61.97070 3008 ft 241 kts
2026-04-25 19:34 11.98081 -61.96989 2834 ft 243 kts 12°
2026-04-25 19:34 11.99531 -61.96173 2580 ft 237 kts 46°
2026-04-25 19:34 12.00358 -61.94780 2383 ft 228 kts 75°
2026-04-25 19:34 12.00497 -61.93196 2239 ft 222 kts 92°
2026-04-25 19:35 12.00473 -61.91607 2088 ft 224 kts 92°
2026-04-25 19:35 12.00461 -61.90023 1900 ft 219 kts 91°
2026-04-25 19:35 12.00458 -61.88499 1628 ft 208 kts 91°
2026-04-25 19:35 12.00454 -61.87107 1329 ft 182 kts 91°
2026-04-25 19:36 12.00449 -61.85940 1095 ft 151 kts 92°
2026-04-25 19:36 12.00442 -61.84942 871 ft 131 kts 91°
2026-04-25 19:36 12.00436 -61.84069 765 ft 118 kts 93°
2026-04-25 19:36 12.00444 -61.83225 591 ft 119 kts 90°
2026-04-25 19:37 12.00446 -61.82387 452 ft 118 kts 94°
2026-04-25 19:37 12.00431 -61.81559 332 ft 116 kts 93°
2026-04-25 19:37 12.00423 -61.80740 226 ft 114 kts 92°
2026-04-25 19:37 12.00416 -61.79934 74 ft 114 kts 92°
2026-04-25 19:38 12.00410 -61.79173 25 ft 93 kts 90°
2026-04-25 19:38 12.00407 -61.78767 26 ft 32 kts 90°
2026-04-25 19:38 12.00417 -61.78612 28 ft 15 kts 51°
2026-04-25 19:38 12.00501 -61.78601 26 ft 1 kts
2026-04-25 19:39 12.00511 -61.78601 25 ft 4 kts 359°
2026-04-25 19:39 12.00544 -61.78603 24 ft 7 kts 349°
2026-04-25 19:39 12.00571 -61.78632 25 ft 4 kts 287°
2026-04-25 19:40 12.00572 -61.78639 26 ft 1 kts 280°
2026-04-25 19:40 12.00573 -61.78677 24 ft 7 kts 269°
2026-04-25 19:40 12.00574 -61.78723 24 ft 6 kts 293°
2026-04-25 19:40 12.00621 -61.78728 25 ft 7 kts 18°
2026-04-25 19:41 12.00653 -61.78696 24 ft 4 kts 47°
2026-04-25 19:41 12.00658 -61.78690 25 ft 0 kts 48°